Regional Weather Roundup
Issued by NWS

Home | Current Version | Previous Version | Text Only | Print | Product List | Glossary On
Versions: 1 2 3 4 5 6 7 8 9 10 11 12 13 14 15 16 17 18 19 20 21 22 23 24 25 26 27 28 29 30 31 32 33 34 35 36 37 38 39 40 41 42 43 44 45 46 47 48 49 50
000
ASUS43 KLMK 290202
RWRKY
KENTUCKY REGIONAL WEATHER ROUNDUP
NATIONAL WEATHER SERVICE LOUISVILLE KY
900 PM EST WED JAN 28 2015

NOTE "FAIR" INDICATES FEW OR NO CLOUDS BELOW 12,000 FEET
WITH NO SIGNIFICANT WEATHER AND/OR OBSTRUCTIONS TO VISIBILITY.

KYZ001>023-026-027-061>063-070>075-290300-
WESTERN AND SOUTH CENTRAL KENTUCKY

CITY           SKY/WX    TMP DP  RH WIND       PRES   REMARKS
PADUCAH        PTCLDY    43  29  57 SE7       30.07R
HENDERSON      PTCLDY    41  21  45 SE12G18   30.09S
OWENSBORO      CLEAR     39  23  53 SE10      30.11F WCI  32
HOPKINSVILLE   CLEAR     44  26  49 SE8       30.10F
BOWLING GREEN  CLEAR     35  22  58 E7        30.16F WCI  29
GLASGOW        NOT AVBL
$$

KYZ024-025-028>034-038-045-046-053-290300-
NORTH CENTRAL KENTUCKY

CITY           SKY/WX    TMP DP  RH WIND       PRES   REMARKS
LOUISVILLE/SDF PTCLDY    35  18  49 SE7       30.18F WCI  29
LOUISVILLE/LOU PTCLDY    36  18  48 SE7       30.18F WCI  30
FORT KNOX      PTCLDY    34  15  45 E7        30.15F WCI  28
$$

KYZ035>037-039>044-047>052-055>060-089>105-290300-
NORTHEAST KENTUCKY

CITY           SKY/WX    TMP DP  RH WIND       PRES   REMARKS
LEXINGTON      PTCLDY    31  19  61 SE8       30.21F WCI  23
COVINGTON      MOCLDY    30  19  63 SE12      30.20F WCI  20
FRANKFORT      PTCLDY    31  19  61 SE8       30.20F WCI  23
$$

KYZ054-064>069-076>088-106>120-290300-
SOUTHEAST KENTUCKY

CITY           SKY/WX    TMP DP  RH WIND       PRES   REMARKS
JACKSON        CLEAR     30  18  60 VRB3      30.23F
LONDON         CLEAR     30  19  63 CALM      30.23S
SOMERSET       NOT AVBL
MIDDLESBORO    NOT AVBL
MONTICELLO     CLEAR     28  21  75 CALM      30.24F
$$




USA.gov is the U.S. government's official web portal to all federal, state and local government web resources and services.